CW1840 Weather Reports


time (UTC)temp
C
wind
direction
speed
KPH
gust
KPH
rain 1hr
cm
rain 24hr
cm
rain mn
cm
humidity
%
barometer
mb
20260502123027 18 84 0.0 0.0 0.00 0.00 0.00 33 1012.8
20260502110026 20 19 0.0 0.0 0.00 0.00 0.00 31 1012.4
20260502070027 22 57 1.6 9.7 0.00 0.00 0.00 25 1011.0
20260502060026 22 15 0.0 0.0 0.00 0.00 0.00 26 1010.6
20260502050026 24 11 0.0 0.0 0.00 0.00 0.00 23 1010.3
20260502030026 27 74 6.4 12.9 0.00 0.00 0.00 20 1009.1
20260502020026 29 116 11.3 19.3 0.00 0.00 0.00 18 1008.6
20260502013026 30 119 12.9 20.9 0.00 0.00 0.00 17 1008.6
20260502010027 31 182 11.3 22.5 0.00 0.00 0.00 18 1008.7
20260502003027 31 154 12.9 22.5 0.00 0.00 0.00 18 1008.7
20260501233026 32 113 12.9 29.0 0.00 0.00 0.00 18 1009.0
20260501230026 32 96 16.1 30.6 0.00 0.00 0.00 17 1009.3
20260501213026 32 89 9.7 29.0 0.00 0.00 0.00 20 1010.7
20260501210026 32 54 12.9 32.2 0.00 0.00 0.00 18 1011.0
20260501200027 31 108 4.8 14.5 0.00 0.00 0.00 19 1011.7
20260501193026 31 249 6.4 24.1 0.00 0.00 0.00 20 1012.1
20260501190027 31 78 8.0 20.9 0.00 0.00 0.00 22 1012.5
20260501183027 30 112 8.0 16.1 0.00 0.00 0.00 22 1012.9
20260501170027 30 119 8.0 19.3 0.00 0.00 0.00 22 1013.4
20260501163027 28 130 9.7 22.5 0.00 0.00 0.00 25 1013.4
20260501153027 25 204 3.2 9.7 0.00 0.00 0.00 30 1013.0